Starlink 31633

operational
NORAD ID: 59331 Int'l Des: 2024-057 Owner: SPXS Country: US Constellation: starlink
LEOCIRCULAR

关于 Starlink 31633

正在加载描述...

实时位置

正在加载3D地球...

即将过境

高度历史

Altitude vs Time

uPlot chart will show altitude changes over time

两行轨道根数

1 59331U 24057M 25351.54298641 -.00000459 00000-0 -71535-5 0 9990
2 59331 43.0055 291.1773 0000420 257.0274 103.0531 15.27576425 97275
Epoch: Dec 17, 2025 • Age: 22 hours

当前状态

高度 496.1 km
速度 7.62 km/s
星下点 -43.14°S, 47.95°W
发射日期 Mar 25, 2024
运行时间 1.7 years
类型 internet

技术详情

分类 Payload
质量 730.00 kg
干质量 700.00 kg
总质量 730.00 kg
长度 0.30 m
直径 4.10 m
跨度 29.00 m
形状 Box + pan
制造商 SPXS
平台类型 Starlink V2M
阶段状态 In Orbit
所有者/国家 SPXS/US

大型星座

Loading constellations...